Location: Nairn
(57.5833°N, 3.8667°W)
Time: 04:38:25
(UTC+00:00)

Altair - Pass Details

Date: 03 December 2020
Orbit: 1501 x 1682 km, 47.2° (Epoch: 17 January)

Event Time Altitude Azimuth Distance (km) Brightness Sun altitude
Rises 20:35:16 0° 232° (SW) 4,727 10.4 -38.4°
Reaches altitude 10° 20:38:36 10° 225° (SW) 3,721 9.7 -38.8°
Enters shadow 20:42:50 26° 206° (SSW) 2,631 8.6 -39.3°
